Wheeling, WV

3:46 AM EDT on July 24, 2017 (GMT -0400)
Wheeling-Ohio County

Weather History for KHLG - April, 2013

Change the Weather History Date:

Wednesday, April 24, 2013

  Actual Average Record
Temperature  
Mean Temperature 52 °F 54 °F  
Max Temperature 67 °F 64 °F 74 °F (2008)
Min Temperature 37 °F 44 °F 28 °F (2015)
Degree Days  
Heating Degree Days 13 11  
Month to date heating degree days 322 358  
Since 1 July heating degree days 5220 5298  
Cooling Degree Days 0    
Month to date cooling degree days 20  
Year to date cooling degree days 20  
Growing Degree Days 2 (Base 50)    
Moisture  
Dew Point 44 °F    
Average Humidity 61    
Maximum Humidity 86    
Minimum Humidity 36    
Precipitation  
Precipitation 0.47 in 0.10 in 1.23 in (1987)
Month to date precipitation 1.80 2.36  
Sea Level Pressure  
Sea Level Pressure 29.92 in    
Wind  
Wind Speed 13 mph (SW)    
Max Wind Speed 31 mph    
Max Gust Speed 40 mph    
Visibility 8 miles    
Events Rain    
T = Trace of Precipitation, MM = Missing Value Source: NWS Daily Summary

Daily Weather History Graph

Daily Weather History Graph

Search for Another Location

Airport or City:

Trip Planner

Search our weather history database for the weather conditions in past years. The results will help you decide how hot, cold, wet, or windy it might be!

Date:

Astronomy

Apr. 24, 2013 Rise Set
Actual Time 6:31 AM EDT 8:10 PM EDT
Civil Twilight 6:02 AM EDT 8:39 PM EDT
Nautical Twilight 5:27 AM EDT 9:14 PM EDT
Astronomical Twilight 4:50 AM EDT 9:51 PM EDT
Moon 7:12 PM EDT 5:34 AM EDT
Length of Visible Light 14h 37m
Length of Day
13h 39m
Waxing Gibbous, 98% of the Moon is Illuminated
Apr 24
Waxing Gibbous
Apr 25
Full
May 2
Last Quarter
May 9
New
May 18
First Quarter

Hourly Weather History & Observations

Time (EDT) Temp. Windchill Dew Point Humidity Pressure Visibility Wind Dir Wind Speed Gust Speed Precip Events Conditions
12:53 AM 60.1 °F - 33.1 °F 36% 29.93 in 10.0 mi SE 6.9 mph - N/A   Overcast
1:53 AM 59.0 °F - 33.1 °F 38% 29.90 in 10.0 mi SSE 10.4 mph - N/A   Partly Cloudy
2:53 AM 57.9 °F - 35.1 °F 42% 29.88 in 10.0 mi SSE 12.7 mph - N/A   Scattered Clouds
3:53 AM 60.1 °F - 35.1 °F 39% 29.88 in 10.0 mi South 15.0 mph - N/A   Overcast
4:53 AM 60.1 °F - 37.0 °F 42% 29.89 in 10.0 mi SSW 11.5 mph - N/A   Overcast
6:53 AM 61.0 °F - 41.0 °F 48% 29.86 in 10.0 mi South 17.3 mph 23.0 mph N/A   Overcast
7:53 AM 63.0 °F - 42.1 °F 46% 29.86 in 10.0 mi SSW 15.0 mph 27.6 mph N/A   Overcast
8:53 AM 63.0 °F - 43.0 °F 48% 29.84 in 10.0 mi SSW 13.8 mph 21.9 mph N/A   Overcast
9:53 AM 66.0 °F - 45.0 °F 47% 29.83 in 10.0 mi SW 19.6 mph 27.6 mph N/A   Overcast
10:53 AM - - - N/A% 29.83 in - North - - N/A   Unknown
11:53 AM 62.1 °F - 51.1 °F 67% 29.80 in 8.0 mi SW 10.4 mph 25.3 mph N/A Rain Light Rain
12:53 PM 57.9 °F - 53.1 °F 84% 29.82 in 3.0 mi WSW 5.8 mph - 0.06 in Rain Rain
1:01 PM 57.2 °F - 53.6 °F 88% 29.82 in 2.5 mi SW 10.4 mph 16.1 mph 0.03 in Rain Light Rain
1:25 PM 57.2 °F - 53.6 °F 88% 29.83 in 1.2 mi SW 16.1 mph 24.2 mph 0.19 in Rain Heavy Rain
1:35 PM 57.2 °F - 53.6 °F 88% 29.83 in 2.5 mi SW 16.1 mph 24.2 mph 0.21 in Rain Rain
1:44 PM 57.2 °F - 53.6 °F 88% 29.82 in 3.0 mi SW 16.1 mph 26.5 mph 0.23 in Rain Rain
1:53 PM 57.0 °F - 54.0 °F 89% 29.83 in 4.0 mi SW 20.7 mph 33.4 mph 0.25 in Rain Light Rain
2:06 PM 57.2 °F - 53.6 °F 88% 29.82 in 2.5 mi SW 13.8 mph 28.8 mph 0.06 in Rain Rain
2:16 PM 57.2 °F - 53.6 °F 88% 29.82 in 5.0 mi SW 12.7 mph 25.3 mph 0.07 in Rain Light Rain
2:53 PM 57.9 °F - 55.0 °F 90% 29.81 in 10.0 mi SSW 11.5 mph - 0.07 in   Overcast
3:53 PM 57.9 °F - 55.0 °F 90% 29.78 in 8.0 mi SSW 15.0 mph 24.2 mph 0.02 in Rain Light Rain
4:31 PM 60.8 °F - 53.6 °F 77% 29.78 in 10.0 mi SW 18.4 mph 36.8 mph 0.00 in   Overcast
4:53 PM 60.1 °F - 53.1 °F 78% 29.79 in 10.0 mi SW 20.7 mph 32.2 mph 0.01 in   Overcast
5:07 PM 51.8 °F - 48.2 °F 88% 29.83 in 6.0 mi West 21.9 mph 39.1 mph 0.01 in Rain Light Rain
5:17 PM 50.0 °F - 46.4 °F 87% 29.86 in 10.0 mi WNW 16.1 mph 26.5 mph 0.01 in Rain Light Rain
5:53 PM 46.0 °F 39.3 °F 43.0 °F 89% 29.92 in 3.0 mi West 16.1 mph 32.2 mph 0.03 in Rain Light Rain
6:25 PM 44.6 °F 38.4 °F 41.0 °F 87% 29.95 in 10.0 mi West 12.7 mph 23.0 mph 0.01 in   Overcast
6:53 PM 43.0 °F 37.7 °F 41.0 °F 93% 29.99 in 9.0 mi WNW 9.2 mph - 0.01 in Rain Light Rain
7:53 PM 42.1 °F 33.1 °F 39.0 °F 89% 30.04 in 9.0 mi West 20.7 mph 27.6 mph 0.00 in Rain Light Rain
8:30 PM 39.2 °F 29.8 °F 37.4 °F 93% 30.06 in 10.0 mi West 18.4 mph 23.0 mph 0.00 in   Overcast
8:37 PM 39.2 °F 32.0 °F 35.6 °F 87% 30.07 in 10.0 mi West 11.5 mph 26.5 mph 0.00 in   Overcast
8:44 PM 39.2 °F 31.6 °F 35.6 °F 87% 30.08 in 10.0 mi West 12.7 mph 25.3 mph 0.00 in   Overcast
8:53 PM 39.9 °F 32.5 °F 36.0 °F 86% 30.11 in 10.0 mi West 12.7 mph 24.2 mph 0.00 in   Overcast
9:16 PM 39.2 °F 33.0 °F 35.6 °F 87% 30.11 in 10.0 mi West 9.2 mph 17.3 mph N/A   Overcast
9:53 PM 39.0 °F 32.8 °F 35.1 °F 86% 30.16 in 10.0 mi West 9.2 mph - 0.00 in Rain Light Rain
10:53 PM 39.0 °F 32.3 °F 35.1 °F 86% 30.18 in 10.0 mi West 10.4 mph - 0.01 in   Overcast
11:43 PM 37.4 °F 32.8 °F 35.6 °F 93% 30.18 in 10.0 mi West 5.8 mph - 0.00 in Rain Light Rain
11:53 PM 39.0 °F 34.8 °F 35.1 °F 86% 30.20 in 10.0 mi West 5.8 mph - 0.00 in   Overcast